Regional Weather Roundup
Issued by NWS

Home | Current Version | Previous Version | Graphics & Text | Print | Product List | Glossary On
Versions: 1 2 3 4 5 6 7 8 9 10 11 12 13 14 15 16 17 18 19 20 21 22 23 24 25 26 27 28 29 30 31 32 33 34 35 36 37 38 39 40 41 42 43 44 45 46 47 48 49 50
000
ASUS45 KABQ 031701
RWRNM
NEW MEXICO REGIONAL WEATHER ROUNDUP
NATIONAL WEATHER SERVICE ALBUQUERQUE NM
1100 AM MDT FRI JUL 03 2015

NOTE: "FAIR" MEANS FEW OR NO CLOUDS BELOW 12,000 FEET AGL WITH NO
       SIGNIFICANT WEATHER OR OBSTRUCTIONS TO VISION.

      THIS PRODUCT IS RELEASED AS TWO VERSIONS.  ONE VERSION NEAR
      THE TOP OF THE HOUR CONTAINING PRELIMINARY DATA FROM ALBUQUERQUE
      AND OTHER STATIONS.  A FINAL VERSION WITH ADDITIONAL DATA IS
      ISSUED ABOUT 10 MINUTES AFTER THE HOUR.

NMZ501-503-504-510>518-031800-
NORTHWEST PLATEAU/NORTHCENTRAL MOUNTAINS

CITY           SKY/WX    TMP DP  RH WIND       PRES   REMARKS
FARMINGTON     SUNNY     77  55  46 VRB6      30.19F
SANTA FE       PTSUNNY   75  52  44 CALM      30.27S
TAOS           PTSUNNY   70  46  43 CALM      30.33S

$$
NMZ402-403-502-505>509-031800-
WESTCENTRAL MOUNTAINS/SOUTHWEST MOUNTAINS

CITY           SKY/WX    TMP DP  RH WIND       PRES   REMARKS
GALLUP         SUNNY     80  53  39 SW9G18    30.26S
GRANTS         SUNNY     74  58  56 S8        30.28F
SILVER CITY      N/A     77  55  47 NW7       30.20S

$$
NMZ407-409-411-412-031800-
SOUTHERN DESERTS

CITY           SKY/WX    TMP DP  RH WIND       PRES   REMARKS
LORDSBURG      FAIR      79  61  53 NW12      30.11F
DEMING         MOSUNNY   84  56  38 N9        30.11S
HOLLOMAN AFB   PTSUNNY   81  58  46 NE6       30.10S
ALAMOGORDO     PTSUNNY   79  55  44 CALM      30.12S
T OR C         SUNNY     81  58  45 VRB6      30.14F

$$
NMZ519>523-031800-
CENTRAL VALLEYS/CENTRAL HIGHLANDS

CITY           SKY/WX    TMP DP  RH WIND       PRES   REMARKS
ALBUQUERQUE    PTSUNNY   77  57  50 SW5       30.21S
DOUBLE EAGLE   PTSUNNY   75  57  53 SE6       30.25S
CLINES CORNERS MOSUNNY   69  54  58 E3        30.32S
BELEN          FAIR      80  57  46 SE9       30.19F
SOCORRO        NOT AVBL

$$
NMZ524>526-539-540-031800-
SOUTHCENTRAL MOUNTAINS

CITY           SKY/WX    TMP DP  RH WIND       PRES   REMARKS
RUIDOSO        NOT AVBL

$$
NMZ527>531-031800-
NORTHEAST HIGHLANDS/NORTHEAST PLAINS

CITY           SKY/WX    TMP DP  RH WIND       PRES   REMARKS
LAS VEGAS      CLOUDY    69  57  65 CALM      30.31S
RATON          MOSUNNY   74  57  55 SE7       30.26S
CLAYTON        SUNNY     83  53  35 S10       30.17F

$$
NMZ532>537-031800-
EASTCENTRAL PLAINS

CITY           SKY/WX    TMP DP  RH WIND       PRES   REMARKS
TUCUMCARI      PTSUNNY   80  60  50 SW6       30.12S
CANNON AFB     CLOUDY    80  57  44 S7        30.13R
CLOVIS AIRPORT CLOUDY    81  57  44 NE10        N/A

$$
NMZ028-029-538-031800-
SOUTHEAST PLAINS

CITY           SKY/WX    TMP DP  RH WIND       PRES   REMARKS
ROSWELL        MOSUNNY   83  65  54 N12G18    30.10S
ARTESIA        MOSUNNY   84  61  45 N12       30.09F
CARLSBAD       SUNNY     86  63  45 NW6       30.06S
HOBBS          MOSUNNY   82  63  51 NE5       30.10S


$$



USA.gov is the U.S. government's official web portal to all federal, state and local government web resources and services.